HI1136 MTCH-MTCH

Flight info

Callsign HI1136
Flight time N/A
Altitude 4000
Route VFR
Aircraft SR22/L-SDGRY/S

Departure

Time 2026-04-11 16:23
Airport Cap Haitien International Airport (MTCH)

Arrival

Time N/A
Airport Cap Haitien International Airport (MTCH)
Time Latitude Longitude Altitude Speed Heading
2026-04-11 15:58 19.73669 -72.19363 14 ft 0 kts 41°
2026-04-11 16:16 19.73671 -72.19361 14 ft 1 kts 59°
2026-04-11 16:17 19.73672 -72.19356 14 ft 1 kts 102°
2026-04-11 16:17 19.73663 -72.19349 14 ft 5 kts 171°
2026-04-11 16:17 19.73619 -72.19379 14 ft 9 kts 221°
2026-04-11 16:17 19.73571 -72.19400 14 ft 6 kts 133°
2026-04-11 16:18 19.73532 -72.19348 14 ft 10 kts 128°
2026-04-11 16:18 19.73514 -72.19325 14 ft 0 kts 129°
2026-04-11 16:20 19.73499 -72.19288 14 ft 11 kts 87°
2026-04-11 16:21 19.73567 -72.19213 14 ft 21 kts 39°
2026-04-11 16:21 19.73695 -72.19107 14 ft 24 kts 38°
2026-04-11 16:21 19.73779 -72.19018 14 ft 8 kts 11°
2026-04-11 16:21 19.73790 -72.19039 14 ft 4 kts 211°
2026-04-11 16:22 19.73759 -72.19055 14 ft 1 kts 216°
2026-04-11 16:22 19.73706 -72.19099 14 ft 30 kts 218°
2026-04-11 16:22 19.73430 -72.19336 14 ft 71 kts 219°
2026-04-11 16:22 19.72969 -72.19738 56 ft 93 kts 218°
2026-04-11 16:23 19.72454 -72.20182 219 ft 97 kts 220°
2026-04-11 16:23 19.71950 -72.20643 423 ft 96 kts 220°
2026-04-11 16:23 19.71421 -72.21068 607 ft 96 kts 208°
2026-04-11 16:23 19.70770 -72.21246 769 ft 99 kts 187°
2026-04-11 16:24 19.70082 -72.21316 962 ft 98 kts 186°
2026-04-11 16:24 19.69397 -72.21375 1140 ft 100 kts 187°
2026-04-11 16:24 19.69034 -72.21399 1244 ft 101 kts 185°
2026-04-11 16:24 19.68294 -72.21425 1354 ft 110 kts 186°
2026-04-11 16:25 19.67504 -72.21479 1489 ft 116 kts 186°
2026-04-11 16:25 19.66679 -72.21538 1623 ft 122 kts 184°
2026-04-11 16:25 19.65821 -72.21598 1759 ft 126 kts 183°
2026-04-11 16:25 19.64945 -72.21657 1892 ft 129 kts 183°
2026-04-11 16:26 19.64026 -72.21720 2026 ft 132 kts 183°
2026-04-11 16:26 19.63110 -72.21784 2155 ft 135 kts 183°
2026-04-11 16:26 19.62174 -72.21849 2284 ft 137 kts 183°
2026-04-11 16:26 19.61214 -72.21917 2414 ft 138 kts 183°
2026-04-11 16:27 19.60260 -72.21984 2556 ft 138 kts 183°
2026-04-11 16:27 19.59297 -72.22053 2715 ft 137 kts 183°
2026-04-11 16:27 19.58350 -72.22122 2886 ft 136 kts 183°
2026-04-11 16:27 19.57427 -72.22190 3104 ft 130 kts 183°
2026-04-11 16:28 19.56541 -72.22256 3337 ft 125 kts 183°
2026-04-11 16:28 19.55688 -72.22322 3572 ft 120 kts 183°
2026-04-11 16:28 19.54870 -72.22385 3806 ft 117 kts 183°
2026-04-11 16:28 19.54070 -72.22447 4043 ft 113 kts 183°
2026-04-11 16:29 19.53306 -72.22506 4276 ft 109 kts 184°
2026-04-11 16:29 19.52539 -72.22564 4452 ft 113 kts 184°
2026-04-11 16:29 19.51733 -72.22623 4597 ft 118 kts 184°
2026-04-11 16:29 19.50894 -72.22682 4738 ft 123 kts 183°
2026-04-11 16:30 19.50021 -72.22742 4877 ft 127 kts 184°
2026-04-11 16:30 19.49125 -72.22803 5012 ft 131 kts 184°
2026-04-11 16:30 19.48207 -72.22865 5148 ft 133 kts 184°
2026-04-11 16:30 19.47269 -72.22931 5277 ft 136 kts 184°
2026-04-11 16:31 19.46318 -72.22996 5407 ft 138 kts 184°
2026-04-11 16:31 19.45368 -72.23063 5534 ft 140 kts 184°
2026-04-11 16:31 19.44389 -72.23131 5662 ft 141 kts 185°
2026-04-11 16:31 19.43404 -72.23201 5798 ft 141 kts 185°
2026-04-11 16:32 19.42452 -72.23268 6027 ft 134 kts 185°
2026-04-11 16:32 19.41545 -72.23336 6262 ft 128 kts 185°
2026-04-11 16:32 19.40677 -72.23404 6494 ft 122 kts 185°
2026-04-11 16:32 19.39845 -72.23471 6726 ft 117 kts 185°
2026-04-11 16:33 19.39059 -72.23533 6954 ft 113 kts 186°
2026-04-11 16:33 19.38257 -72.23597 7058 ft 121 kts 186°
2026-04-11 16:33 19.37371 -72.23661 7091 ft 133 kts 185°
2026-04-11 16:33 19.36409 -72.23725 7113 ft 144 kts 185°
2026-04-11 16:34 19.35381 -72.23790 7128 ft 151 kts 185°
2026-04-11 16:34 19.34311 -72.23857 7137 ft 157 kts 185°
2026-04-11 16:34 19.33211 -72.23927 7142 ft 161 kts 185°
2026-04-11 16:34 19.32079 -72.24001 7120 ft 166 kts 185°
2026-04-11 16:35 19.30906 -72.24078 7045 ft 171 kts 185°
2026-04-11 16:35 19.29725 -72.24155 7044 ft 167 kts 185°
2026-04-11 16:35 19.28588 -72.24233 7037 ft 163 kts 185°
2026-04-11 16:35 19.27449 -72.24315 7040 ft 165 kts 185°
2026-04-11 16:36 19.26687 -72.24370 7041 ft 166 kts 185°